Find Meteor

NORAD ID: 9903 Int'l Des: 1977-024 Owner: GUKOSR/GMS Country: SU operational
LEOCIRCULARPOLAR

实时位置

正在加载3D地球...

关于 Meteor

正在加载描述...

即将过境

Passes for default location (London). Set your location on the main map for personalized predictions.

高度历史

Loading altitude history...

两行轨道根数

1 9903U 77024A 26137.79419062 -.00000029 00000-0 -24524-4 0 9992
2 9903 81.2738 167.0627 0039374 92.7257 267.8421 14.08735078523271
Epoch: May 17, 2026 • Age: 9 hours

当前状态

高度 850.4 km
速度 7.44 km/s
星下点 46.96°N, 116.85°W
类型 other

Most Searched